News

Statistiques des heures de vol au 9 décembre 2014

Les statistiques des heures de vol réalisées sont à votre disposition dans la rubrique "Membres"...

Paul Garnier futur pilote de chasse

Paul Garnier, futur pilote de chasse   Paul Garnier, 21 ans, habitant de...

Accueil

 Bienvenue sur le site de l'Aéroclub de Touraine !

Patrouille présentation 3 avions - 9 Octobre 2013.

 

  Ce site est en constante évolution.

Il vous permet de découvrir nos activités, et de vous donner envie de nous rejoindre et d'apprendre à piloter.

L'Aéroclub de Touraine est situé au Sud de l'agglomération Tourangelle, sur la plateforme de Tours-Sorigny (carte VAC)

C'est l'un des plus ancien Aéroclub de France, fondé en 1908. L'Aéroclub de Touraine est une association loi 1901 dynamique affilié à la Fédération Française Aéronautique.

Tous les efforts sont faits pour maintenir une flotte d'avions bien équipés et récents, régulièrement renouvelés.

L'Aéroclub de Touraine est un club de passionnés de l'aéronautique qui vous feront découvrir leurs activités: balades, voyages, rallyes aériens, vols en patrouille

Mais l'Aéroclub de Touraine, c'est aussi une école de pilotage , forte d'un instructeur professionnel salarié et de 4 instructeurs bénévoles permettant à nos élèves de progresser en toute sécurité dans l'apprentissage du vol moteur.

Alors n'hésitez pas à nous rendre visite, l'accueil est aussi un des points forts de l'Aéroclub de Touraine

 

Sites amis

                        

 

Météo

[source: ADDS]
METAR
TAF LFOT 190500Z 1906/2006 24012KT 9999 OVC010 TEMPO 1906/1908 3500 -RADZ OVC005 BECMG 1910/1912 24015G29KT RA BKN005 BECMG 1918/1920 34005KT NSW BKN020 TAF
TAF LFOT 190500Z 1906/2006 24012KT 9999 OVC010 TEMPO 1906/1908 3500 -RADZ OVC005 BECMG 1910/1912 24015G29KT RA BKN005 BECMG 1918/1920 34005KT NSW BKN020 =
SR / SS: 07:40 / 16:08 UTC (LFEN 2014-12-19)

Login Form



Facebook